[[{"header":{"parameterUnit":"m.s-1","parameterCategory":1,"la1":30.2991,"la2":30.254,"lo1":-89.0895,"lo2":-89.0444,"dy":0.0017,"dx":0.0017,"nx":28,"ny":28,"refTime":"2024-07-18T21:00:00:Z","depth":0,"parameterNumber":2,"parameterNumberName":"U-component_of_WINDS"},"data":[0,0,0,0,0,0,0,0,0,0,0,0,0,0,0,0,0,0,0,0,0,0,0,0,0,0,0,0,0,0,0,0,0,0,0,0,0,0,0,0,0,0,0,0,0,0,0,0,0,0,0,0,0,0,0,0,0,0,-1.0533,-1.0533,0,-1.0599,-1.06,-1.0601,-1.0597,-1.0596,-1.0595,-1.0594,-1.0662,-1.0665,-1.0668,0,0,0,0,0,0,0,0,0,0,0,0,0,-1.04,-1.0403,-1.0532,-1.0533,-1.0534,-1.0599,-1.06,-1.0601,-1.0597,-1.0596,-1.0595,-1.0594,-1.0662,-1.0665,-1.0668,0,0,0,0,0,0,0,0,0,0,0,0,0,-1.0461,-1.0403,-1.0532,-1.054,-1.0541,-1.0599,-1.06,-1.0601,-1.0597,-1.0596,-1.0595,-1.0593,-1.066,-1.0664,-1.0668,-1.0723,0,0,-1.0681,-1.0683,0,0,0,0,0,0,0,0,-1.0458,-1.0466,-1.0538,-1.054,-1.0541,-1.0588,-1.0579,-1.0642,-1.0598,-1.0576,-1.0594,-1.0592,-1.0639,-1.0645,-1.066,-1.0726,-1.0729,-1.0681,-1.0684,-1.0686,-1.0687,0,0,0,0,0,0,0,-1.0454,-1.0463,-1.0559,-1.0539,-1.0541,-1.054,-1.0547,-1.0591,-1.0615,-1.0578,-1.0578,-1.0586,-1.064,-1.0657,-1.0662,-1.073,-1.0681,-1.0685,-1.0687,-1.0689,-1.0842,-1.0843,0,0,0,0,0,0,-1.0448,-1.046,-1.0557,-1.0561,-1.0495,-1.0543,-1.0551,-1.0575,-1.0614,-1.0619,-1.0587,-1.0585,-1.065,-1.0657,-1.0664,-1.073,-1.0686,-1.0689,-1.0692,-1.084,-1.0842,-1.0844,0,0,0,0,0,0,-1.0445,-1.0456,-1.0554,-1.051,-1.0523,-1.0547,-1.0574,-1.0577,-1.0594,-1.0621,-1.0625,-1.06,-1.0649,-1.0659,-1.0708,-1.0732,-1.0691,-1.0695,-1.0838,-1.0841,-1.0843,-1.0861,0,0,0,0,0,0,-1.0441,-1.0456,-1.0477,-1.0511,-1.0525,-1.0597,-1.0575,-1.0579,-1.0601,-1.0599,-1.0635,-1.0639,-1.0649,-1.0702,-1.0712,-1.0737,-1.0698,-1.0836,-1.0839,-1.0842,-1.0858,-1.0864,-1.0868,0,0,0,0,0,-1.0436,-1.0479,-1.0478,-1.049,-1.0552,-1.0598,-1.0606,-1.0617,-1.0603,-1.0624,-1.0641,-1.0638,-1.0728,-1.0707,-1.0718,-1.0745,-1.0835,-1.0838,-1.0842,-1.0856,-1.0863,-1.0868,0,0,0,0,0,0,-1.0448,-1.0484,-1.0483,-1.0538,-1.0565,-1.0598,-1.0625,-1.0624,-1.0656,-1.0653,-1.0665,-1.0673,-1.0722,-1.0738,-1.0715,-1.0799,-1.0779,-1.0785,-1.0786,-1.0793,-1.0797,-1.0792,-1.0701,0,0,0,0,0,-1.0457,-1.0491,-1.0521,-1.0567,-1.0581,-1.06,-1.0621,-1.0627,-1.0655,-1.0667,-1.0688,-1.0715,-1.075,-1.0772,-1.0805,-1.0861,-1.0868,-1.0884,-1.0889,-1.0893,-1.0898,-1.0927,-1.0935,-1.0856,-1.0856,-1.0855,0,0,-1.0475,-1.05,-1.0521,-1.057,-1.0592,-1.0627,-1.061,-1.0648,-1.0674,-1.0673,-1.072,-1.0736,-1.0768,-1.082,-1.0844,-1.0835,-1.0921,-1.0898,-1.0901,-1.0904,-1.0932,-1.0939,-1.0946,-1.0858,-1.0858,-1.0857,0,0,-1.0528,-1.055,-1.059,-1.0612,-1.0644,-1.0657,-1.0667,-1.0699,-1.071,-1.0758,-1.0757,-1.0787,-1.0847,-1.0869,-1.0888,-1.0947,-1.0944,-1.0957,-1.0983,-1.1011,-1.1018,-1.1023,-1.1043,-1.105,-1.0962,-1.0962,-1.0962,0,-1.0547,-1.06,-1.0611,-1.0649,-1.067,-1.0669,-1.071,-1.073,-1.0772,-1.0787,-1.0776,-1.0849,-1.0871,-1.0927,-1.0941,-1.0957,-1.0968,-1.0953,-1.1016,-1.1022,-1.1027,-1.1046,-1.1054,-1.0963,-1.0963,-1.0963,-1.0963,0,-1.0622,-1.0658,-1.0687,-1.0727,-1.0751,-1.079,-1.0806,-1.0829,-1.0833,-1.0846,-1.0894,-1.092,-1.0957,-1.0971,-1.0975,-1.1028,-1.1022,-1.1013,-1.0994,-1.1036,-1.1054,-1.1061,-1.0965,-1.0965,-1.0964,-1.0964,0,0,-1.0683,-1.0728,-1.0738,-1.0756,-1.0791,-1.082,-1.0858,-1.0895,-1.0914,-1.0943,-1.0975,-1.1024,-1.1017,-1.1038,-1.1044,-1.1069,-1.1113,-1.1058,-1.1059,-1.1067,-1.1172,-1.1177,-1.1186,-1.1111,-1.1113,-1.1114,-1.1169,0,-1.0739,-1.0807,-1.0817,-1.0877,-1.0911,-1.091,-1.0944,-1.0969,-1.0982,-1.1012,-1.1027,-1.1061,-1.1049,-1.1061,-1.1086,-1.1102,-1.1134,-1.1099,-1.1141,-1.1142,-1.1132,-1.1195,-1.1202,-1.1252,-1.1176,-1.1177,-1.1178,0,-1.0812,-1.0843,-1.0906,-1.0936,-1.095,-1.098,-1.1014,-1.1043,-1.1071,-1.1079,-1.1102,-1.1105,-1.1144,-1.1123,-1.1176,-1.1152,-1.1169,-1.118,-1.1182,-1.1186,-1.1162,-1.1201,-1.1269,-1.1276,-1.119,-1.1189,-1.1188,0,-1.085,-1.0907,-1.0952,-1.0967,-1.1003,-1.1024,-1.104,-1.1066,-1.1087,-1.1117,-1.113,-1.1164,-1.1182,-1.1207,-1.1219,-1.1203,-1.1271,-1.1251,-1.1278,-1.1278,-1.1292,-1.1291,-1.1364,-1.1305,-1.1305,-1.1304,-1.1304,0,-1.0911,-1.0949,-1.0969,-1.0997,-1.1039,-1.105,-1.1092,-1.1107,-1.1131,-1.1161,-1.1162,-1.119,-1.1204,-1.1234,-1.1243,-1.1285,-1.1293,-1.13,-1.1302,-1.13,-1.1299,-1.1311,-1.1308,-1.1306,-1.1306,-1.1306,-1.1305,0,-1.096,-1.0975,-1.1024,-1.1054,-1.1062,-1.1092,-1.1117,-1.1144,-1.1156,-1.1194,-1.1204,-1.1223,-1.1259,-1.1272,-1.1316,-1.1321,-1.137,-1.1369,-1.136,-1.1361,-1.1386,-1.1383,-1.1469,-1.148,-1.1414,-1.1415,-1.1415,0,-1.0997,-1.1027,-1.106,-1.108,-1.1097,-1.1129,-1.115,-1.1162,-1.1183,-1.1217,-1.1239,-1.1274,-1.1302,-1.1358,-1.1376,-1.1409,-1.1408,-1.1436,-1.1413,-1.141,-1.1408,-1.1406,-1.1408,-1.144,-1.1441,-1.1441,-1.1442,0,-1.1062,-1.1068,-1.1098,-1.1131,-1.1156,-1.1183,-1.1208,-1.1225,-1.124,-1.1264,-1.13,-1.1322,-1.1365,-1.1399,-1.1433,-1.1448,-1.1447,-1.1449,-1.1456,-1.1454,-1.1448,-1.1451,-1.1371,-1.1447,-1.1446,-1.1446,-1.1446,-1.1445,-1.1106,-1.1132,-1.1159,-1.1192,-1.1213,-1.1236,-1.1262,-1.1278,-1.1308,-1.1344,-1.1349,-1.1387,-1.1412,-1.1457,-1.1474,-1.1503,-1.1496,-1.1508,-1.151,-1.1513,-1.1514,-1.1443,-1.151,-1.1509,-1.1509,-1.1509,-1.1509,0,-1.117,-1.1187,-1.1218,-1.1254,-1.128,-1.1276,-1.1304,-1.1326,-1.136,-1.1384,-1.1412,-1.1452,-1.1485,-1.1505,-1.1538,-1.1557,-1.1557,-1.1565,-1.1564,-1.1567,-1.1519,-1.1509,-1.1565,-1.1565,-1.1565,-1.1564,-1.1564,-1.1564,-1.1207,-1.125,-1.1258,-1.1311,-1.1327,-1.1365,-1.1381,-1.1402,-1.1421,-1.1466,-1.1494,-1.1506,-1.1529,-1.1563,-1.1592,-1.1597,-1.1609,-1.1617,-1.1622,-1.1577,-1.1571,-1.1565,-1.1556,-1.162,-1.162,-1.1667,-1.1668,-1.1668]},{"header":{"parameterUnit":"m.s-1","parameterCategory":1,"la1":30.2991,"la2":30.254,"lo1":-89.0895,"lo2":-89.0444,"dy":0.0017,"dx":0.0017,"nx":28,"ny":28,"refTime":"2024-07-18T21:00:00:Z","depth":0,"parameterNumber":3,"parameterNumberName":"V-component_of_WINDS"},"data":[0,0,0,0,0,0,0,0,0,0,0,0,0,0,0,0,0,0,0,0,0,0,0,0,0,0,0,0,0,0,0,0,0,0,0,0,0,0,0,0,0,0,0,0,0,0,0,0,0,0,0,0,0,0,0,0,0,0,-2.522,-2.5221,0,-2.5259,-2.5259,-2.526,-2.5235,-2.5234,-2.5233,-2.5232,-2.5269,-2.5271,-2.5273,0,0,0,0,0,0,0,0,0,0,0,0,0,-2.5122,-2.5124,-2.522,-2.5221,-2.5221,-2.5259,-2.5259,-2.526,-2.5235,-2.5234,-2.5233,-2.5231,-2.5268,-2.527,-2.5273,0,0,0,0,0,0,0,0,0,0,0,0,0,-2.5163,-2.5124,-2.522,-2.5213,-2.5213,-2.5259,-2.5259,-2.526,-2.5236,-2.5234,-2.5232,-2.5231,-2.5267,-2.527,-2.5273,-2.5326,0,0,-2.5283,-2.5284,0,0,0,0,0,0,0,0,-2.516,-2.5166,-2.5214,-2.5214,-2.5214,-2.524,-2.5238,-2.5282,-2.5236,-2.5227,-2.5232,-2.523,-2.526,-2.5264,-2.5275,-2.5328,-2.533,-2.5283,-2.5285,-2.5286,-2.5287,0,0,0,0,0,0,0,-2.5158,-2.5165,-2.5235,-2.5215,-2.5215,-2.5207,-2.5211,-2.5246,-2.5253,-2.5228,-2.5226,-2.5231,-2.526,-2.5272,-2.5276,-2.533,-2.5283,-2.5285,-2.5287,-2.5289,-2.5427,-2.5428,0,0,0,0,0,0,-2.5156,-2.5162,-2.5234,-2.5236,-2.5183,-2.5211,-2.5215,-2.5234,-2.5252,-2.5254,-2.5232,-2.523,-2.5268,-2.5272,-2.5277,-2.5339,-2.5286,-2.5289,-2.5291,-2.5425,-2.5427,-2.5429,0,0,0,0,0,0,-2.5154,-2.5162,-2.5232,-2.5199,-2.5207,-2.5214,-2.5235,-2.5235,-2.5247,-2.5256,-2.5257,-2.5244,-2.5266,-2.5272,-2.5314,-2.534,-2.529,-2.5293,-2.5423,-2.5426,-2.5428,-2.5464,0,0,0,0,0,0,-2.5151,-2.5162,-2.5183,-2.52,-2.5209,-2.527,-2.5237,-2.5237,-2.5253,-2.525,-2.5267,-2.5268,-2.5266,-2.5309,-2.5317,-2.5343,-2.5295,-2.542,-2.5424,-2.5427,-2.546,-2.5467,-2.5474,0,0,0,0,0,-2.5148,-2.5191,-2.5184,-2.5193,-2.5236,-2.5272,-2.5277,-2.5274,-2.5255,-2.5275,-2.5281,-2.5267,-2.5336,-2.5314,-2.5322,-2.5349,-2.5419,-2.5423,-2.5427,-2.5457,-2.5466,-2.5473,0,0,0,0,0,0,-2.5176,-2.5193,-2.5186,-2.5236,-2.5253,-2.5267,-2.5293,-2.5284,-2.5305,-2.5301,-2.5296,-2.53,-2.5343,-2.5351,-2.5326,-2.5401,-2.5374,-2.538,-2.5394,-2.5403,-2.5409,-2.5406,-2.5298,0,0,0,0,0,-2.5189,-2.5218,-2.523,-2.5274,-2.5282,-2.5287,-2.5302,-2.5299,-2.5315,-2.5322,-2.533,-2.5346,-2.5371,-2.5387,-2.5411,-2.5462,-2.5464,-2.5484,-2.5491,-2.5496,-2.5501,-2.5527,-2.5535,-2.5443,-2.5443,-2.5443,0,0,-2.5214,-2.5227,-2.5245,-2.528,-2.5292,-2.532,-2.5293,-2.5324,-2.5345,-2.5326,-2.5366,-2.5373,-2.539,-2.5436,-2.5456,-2.5443,-2.5527,-2.5502,-2.5506,-2.5508,-2.5532,-2.5541,-2.5548,-2.5445,-2.5445,-2.5444,0,0,-2.5275,-2.5289,-2.5325,-2.5338,-2.5358,-2.536,-2.5369,-2.5385,-2.5389,-2.5429,-2.5415,-2.5439,-2.5483,-2.5495,-2.5507,-2.5572,-2.5559,-2.558,-2.5614,-2.5639,-2.5646,-2.5652,-2.5674,-2.5682,-2.5585,-2.5585,-2.5585,0,-2.5304,-2.5347,-2.5345,-2.5378,-2.5392,-2.5378,-2.5414,-2.5426,-2.5452,-2.5462,-2.5447,-2.5501,-2.5512,-2.5559,-2.5575,-2.5586,-2.5594,-2.5577,-2.5645,-2.5652,-2.5658,-2.5678,-2.5686,-2.5587,-2.5587,-2.5587,-2.5587,0,-2.5381,-2.5411,-2.5438,-2.5464,-2.5482,-2.5516,-2.5518,-2.5536,-2.5531,-2.5535,-2.5575,-2.5587,-2.5612,-2.5623,-2.5619,-2.567,-2.5661,-2.5646,-2.5619,-2.5669,-2.5688,-2.5696,-2.559,-2.559,-2.5589,-2.5588,0,0,-2.546,-2.5484,-2.5494,-2.5505,-2.5525,-2.5548,-2.5581,-2.5606,-2.5621,-2.564,-2.5666,-2.5703,-2.5689,-2.5702,-2.5699,-2.5721,-2.577,-2.5703,-2.5703,-2.5714,-2.5825,-2.5835,-2.5844,-2.5762,-2.5764,-2.5765,-2.5823,0,-2.5521,-2.5579,-2.5578,-2.5632,-2.5658,-2.5645,-2.5673,-2.5688,-2.5692,-2.5715,-2.5719,-2.5745,-2.5725,-2.5733,-2.5755,-2.5759,-2.5792,-2.5755,-2.5785,-2.5786,-2.5779,-2.5854,-2.5865,-2.592,-2.5831,-2.5832,-2.5833,0,-2.5599,-2.562,-2.5677,-2.5692,-2.5703,-2.5729,-2.5751,-2.5774,-2.579,-2.5791,-2.5806,-2.5799,-2.5831,-2.5804,-2.5847,-2.5822,-2.5834,-2.5839,-2.5841,-2.5842,-2.5811,-2.5856,-2.5937,-2.5945,-2.5845,-2.5844,-2.5843,0,-2.5649,-2.5692,-2.5731,-2.5741,-2.576,-2.5778,-2.5787,-2.5801,-2.5816,-2.5836,-2.5845,-2.5868,-2.588,-2.5897,-2.5896,-2.5876,-2.5939,-2.5912,-2.5939,-2.5939,-2.5952,-2.595,-2.6034,-2.5962,-2.5962,-2.5962,-2.5962,0,-2.5716,-2.575,-2.5753,-2.5777,-2.5815,-2.5813,-2.585,-2.5857,-2.587,-2.5893,-2.5883,-2.5906,-2.5903,-2.5926,-2.5925,-2.5959,-2.5965,-2.5966,-2.5965,-2.5966,-2.5966,-2.5973,-2.5968,-2.5964,-2.5964,-2.5963,-2.5963,0,-2.5777,-2.5781,-2.5822,-2.5837,-2.5842,-2.5869,-2.5881,-2.5903,-2.5906,-2.5936,-2.5943,-2.5948,-2.5974,-2.5975,-2.6004,-2.6003,-2.6045,-2.6041,-2.604,-2.6038,-2.6065,-2.6061,-2.6154,-2.6165,-2.6088,-2.6089,-2.609,0,-2.5819,-2.5845,-2.5863,-2.5879,-2.5888,-2.5914,-2.5929,-2.5928,-2.5944,-2.5964,-2.5983,-2.6008,-2.6027,-2.6068,-2.6074,-2.6095,-2.609,-2.6121,-2.6093,-2.6093,-2.6089,-2.6086,-2.6088,-2.6126,-2.6127,-2.6128,-2.6128,0,-2.5891,-2.5892,-2.5915,-2.5938,-2.5957,-2.5975,-2.5992,-2.6005,-2.6005,-2.6024,-2.605,-2.6065,-2.6095,-2.6119,-2.614,-2.6148,-2.6137,-2.6137,-2.6144,-2.6145,-2.6142,-2.6142,-2.6053,-2.6135,-2.6134,-2.6134,-2.6133,-2.6133,-2.5943,-2.5965,-2.5981,-2.6006,-2.6019,-2.6035,-2.6056,-2.6062,-2.6084,-2.6109,-2.6107,-2.6135,-2.6149,-2.6177,-2.6186,-2.6208,-2.6197,-2.6208,-2.621,-2.6212,-2.6214,-2.6141,-2.6212,-2.6212,-2.6212,-2.6211,-2.6211,0,-2.6013,-2.6023,-2.6047,-2.607,-2.609,-2.6081,-2.6098,-2.6115,-2.6141,-2.6155,-2.6175,-2.6204,-2.6227,-2.6235,-2.6257,-2.6273,-2.6269,-2.6278,-2.6276,-2.6278,-2.6224,-2.6215,-2.6281,-2.6281,-2.6281,-2.6281,-2.6281,-2.6281,-2.6052,-2.6089,-2.6091,-2.6133,-2.6142,-2.6171,-2.6182,-2.6196,-2.6207,-2.6241,-2.626,-2.6266,-2.6277,-2.63,-2.632,-2.6321,-2.6329,-2.634,-2.634,-2.6289,-2.6282,-2.6275,-2.6266,-2.6343,-2.6343,-2.6392,-2.6392,-2.6392]}]]